Regional Weather Roundup
Issued by NWS

Home | Current Version | Previous Version | Graphics & Text | Print | Product List | Glossary On
Versions: 1 2 3 4 5 6 7 8 9 10 11 12 13 14 15 16 17 18 19 20 21 22 23 24 25 26 27 28 29 30 31 32 33 34 35 36 37 38 39 40 41 42 43 44 45 46 47 48
000
ASUS45 KBOI 270810
RWRID

IDAHO REGIONAL WEATHER ROUNDUP
NATIONAL WEATHER SERVICE BOISE ID
200 AM MDT WED MAY 27 2015

NOTE: "FAIR" INDICATES FEW OR NO CLOUDS BELOW 12000 FEET
WITH NO SIGNIFICANT WEATHER AND/OR OBSTRUCTIONS TO VISIBILITY

IDZ012-014-270900-
SOUTHWEST IDAHO


CITY           SKY/WX    TMP DP  RH WIND       PRES   REMARKS
BOISE          PTCLDY    61  45  55 N5        29.93S
CALDWELL       CLOUDY    59  43  55 NW6       29.95S
MOUNTAIN HOME  MOCLDY    58  45  63 E8        29.93S
$$

IDZ016-017-270900-
SOUTHCENTRAL IDAHO


CITY           SKY/WX    TMP DP  RH WIND       PRES   REMARKS
BURLEY         PTCLDY    53  43  68 S8        29.99F
JEROME         CLOUDY    54  45  71 E12       29.99S
TWIN FALLS     CLOUDY    60  43  53 S14       29.96S
$$

IDZ019>023-270900-
SOUTHEAST IDAHO


CITY           SKY/WX    TMP DP  RH WIND       PRES   REMARKS
IDAHO FALLS    PTCLDY    45  43  93 N8        30.05R
POCATELLO      CLEAR     49  47  93 N6        30.03S
REXBURG        PTCLDY    46  44  93 CALM      30.05F
$$

IDZ006-010-011-018-031-032-270900-
CENTRAL IDAHO MOUNTAINS


CITY           SKY/WX    TMP DP  RH WIND       PRES   REMARKS
MCCALL         CLOUDY    48  38  68 N10       30.01S
HAILEY         PTCLDY    45  41  87 NW7       30.07S
STANLEY          N/A     41  36  82 CALM      30.07S
SALMON         CLOUDY    52  43  71 N5        30.01S
CHALLIS        MOCLDY    48  43  82 CALM      30.03R
$$

IDZ002-004-006-007-026-270900-
NORTHERN IDAHO


CITY           SKY/WX    TMP DP  RH WIND       PRES   REMARKS
LEWISTON       CLEAR     53  48  83 SE5       29.96S
LOWELL           N/A     52  47  83 N3        30.00R
COEUR D`ALENE  PTCLDY    48  45  87 CALM      29.98R
MULLAN PASS    PTCLDY    44  39  82 SE3       30.04S
$$



USA.gov is the U.S. government's official web portal to all federal, state and local government web resources and services.